[[[{"header":{"parameterUnit":"kt","parameterCategory":2,"dx":1,"dy":1,"la1":30.253999710083008,"la2":30.299108505249023,"lo1":-89.0895004272461,"lo2":-89.04439544677734,"nx":28,"ny":28,"refTime":"2022-09-28T21:00:00:Z","depth":0,"parameterNumber":1,"parameterNumberName":"U-component_of_WINDS"},"data":[-4.367,-4.3887,-4.3874,-4.4115,-4.4143,-4.4306,-4.436,-4.4428,-4.4478,-4.467,-4.4778,-4.4785,-4.483,-4.4955,-4.5071,-4.5071,-4.5124,-4.5211,-4.5198,-4.4819,-4.4766,-4.4716,-4.4665,-4.5221,-4.5222,-4.5595,-4.5598,-4.5601,-4.3394,-4.3425,-4.3548,-4.3658,-4.3764,-4.3671,-4.375,-4.3846,-4.3994,-4.4056,-4.4161,-4.4329,-4.4459,-4.4474,-4.4597,-4.4698,-4.4663,-4.4733,-4.4729,-4.4738,-4.4331,-4.4277,-4.476,-4.476,-4.4759,-4.4759,-4.4759,-4.4759,-4.289,-4.302,-4.3079,-4.3212,-4.3263,-4.3337,-4.3458,-4.3464,-4.3584,-4.3711,-4.3669,-4.3836,-4.3896,-4.4037,-4.408,-4.421,-4.413,-4.4203,-4.4222,-4.4243,-4.427,-4.3742,-4.4229,-4.4227,-4.4226,-4.4225,-4.4224,0,-4.2518,-4.2498,-4.2614,-4.2727,-4.2823,-4.2909,-4.2985,-4.306,-4.301,-4.3111,-4.3257,-4.3338,-4.3498,-4.3634,-4.3744,-4.3774,-4.3693,-4.368,-4.3731,-4.3759,-4.3769,-4.3772,-4.3114,-4.3668,-4.3663,-4.3659,-4.3657,-4.3655,-4.2014,-4.2166,-4.2218,-4.2302,-4.234,-4.2476,-4.2554,-4.2498,-4.2584,-4.2669,-4.2787,-4.292,-4.3025,-4.3259,-4.3265,-4.3385,-4.3348,-4.3561,-4.3365,-4.3383,-4.3358,-4.3353,-4.337,-4.3603,-4.361,-4.3615,-4.3619,0,-4.1732,-4.1707,-4.1938,-4.1974,-4.1988,-4.2151,-4.2182,-4.2309,-4.23,-4.2474,-4.2511,-4.2499,-4.2642,-4.2613,-4.277,-4.2751,-4.3021,-4.2977,-4.3001,-4.2993,-4.3186,-4.3171,-4.3805,-4.3888,-4.3304,-4.3309,-4.3314,0,-4.1295,-4.1496,-4.1448,-4.1583,-4.1804,-4.1743,-4.1964,-4.1979,-4.2028,-4.2165,-4.2063,-4.2193,-4.2134,-4.2261,-4.2232,-4.2447,-4.2474,-4.2475,-4.2466,-4.2488,-4.249,-4.2538,-4.2515,-4.2433,-4.2429,-4.2427,-4.2424,0,-4.0863,-4.107,-4.1287,-4.1331,-4.1391,-4.1495,-4.1525,-4.1579,-4.1656,-4.175,-4.18,-4.1914,-4.1978,-4.2068,-4.2032,-4.1901,-4.2291,-4.2103,-4.2292,-4.2294,-4.2386,-4.2382,-4.2945,-4.242,-4.2419,-4.2418,-4.2417,0,-4.0508,-4.0604,-4.0922,-4.097,-4.1027,-4.117,-4.1278,-4.1393,-4.1458,-4.145,-4.1523,-4.1454,-4.1635,-4.1451,-4.1701,-4.1542,-4.1611,-4.1626,-4.1639,-4.166,-4.1457,-4.1787,-4.232,-4.2378,-4.167,-4.1664,-4.1658,0,-4.0022,-4.0335,-4.0285,-4.0589,-4.073,-4.0608,-4.0765,-4.0825,-4.0827,-4.0947,-4.0946,-4.1085,-4.0941,-4.0981,-4.1107,-4.1115,-4.1322,-4.1085,-4.1265,-4.1273,-4.1259,-4.1747,-4.1837,-4.2205,-4.1578,-4.1586,-4.1592,0,-3.9643,-3.9713,-3.9771,-3.9819,-3.9888,-4.0005,-4.0184,-4.0307,-4.039,-4.0467,-4.0619,-4.0808,-4.0709,-4.0775,-4.0731,-4.0865,-4.118,-4.0741,-4.0742,-4.0827,-4.1533,-4.1618,-4.168,-4.112,-4.113,-4.1138,-4.1529,0,-3.9124,-3.9276,-3.9428,-3.9536,-3.962,-3.9807,-3.9776,-3.9868,-3.9817,-3.9814,-4.0034,-4.0076,-4.0202,-4.0261,-4.0213,-4.0527,-4.0471,-4.0364,-4.0189,-4.0507,-4.0636,-4.0688,-4.0,-3.9994,-3.999,-3.9986,0,0,-3.8669,-3.8886,-3.8825,-3.8997,-3.9066,-3.8937,-3.914,-3.9191,-3.9299,-3.935,-3.925,-3.9526,-3.9566,-3.9837,-3.9933,-3.9982,-4.0037,-3.9927,-4.0354,-4.0395,-4.0434,-4.0572,-4.0626,-3.9978,-3.9976,-3.9975,-3.9973,0,-3.8474,-3.8513,-3.8713,-3.8763,-3.8835,-3.8821,-3.8869,-3.8919,-3.8927,-3.914,-3.9034,-3.9161,-3.9382,-3.944,-3.9498,-3.9891,-3.9807,-3.9931,-4.0156,-4.0309,-4.0357,-4.0398,-4.0544,-4.0596,-3.9962,-3.9963,-3.9963,0,-3.81,-3.8135,-3.8227,-3.8374,-3.842,-3.8568,-3.8374,-3.8537,-3.8646,-3.8499,-3.8714,-3.8734,-3.8806,-3.9064,-3.9179,-3.9093,-3.96,-3.9432,-3.946,-3.9474,-3.9621,-3.9678,-3.9729,-3.9064,-3.9061,-3.9059,0,0,-3.7936,-3.8076,-3.8097,-3.833,-3.8366,-3.8349,-3.8424,-3.8381,-3.8447,-3.8475,-3.8499,-3.8568,-3.8696,-3.8782,-3.89,-3.9187,-3.92,-3.9323,-3.9365,-3.94,-3.9433,-3.959,-3.9646,-3.9047,-3.9047,-3.9047,0,0,-3.7859,-3.7892,-3.7828,-3.8094,-3.8161,-3.8198,-3.8343,-3.8266,-3.8369,-3.8345,-3.8281,-3.8296,-3.8536,-3.8561,-3.8413,-3.8839,-3.8665,-3.8699,-3.8816,-3.8869,-3.891,-3.8902,-3.8224,0,0,0,0,0,-3.7644,-3.7887,-3.7829,-3.7869,-3.8054,-3.823,-3.8253,-3.8206,-3.8084,-3.8199,-3.8207,-3.8109,-3.8468,-3.8335,-3.8376,-3.8544,-3.8902,-3.8928,-3.8952,-3.9169,-3.9224,-3.9271,0,0,0,0,0,0,-3.7659,-3.7708,-3.7822,-3.7871,-3.7912,-3.8221,-3.8004,-3.7998,-3.807,-3.8049,-3.8111,-3.8111,-3.8075,-3.8311,-3.8349,-3.8509,-3.8211,-3.8912,-3.8934,-3.8953,-3.9188,-3.9233,-3.9273,0,0,0,0,0,-3.7671,-3.771,-3.802,-3.7867,-3.7903,-3.7898,-3.7995,-3.7988,-3.8043,-3.8056,-3.8053,-3.8001,-3.8081,-3.8109,-3.8333,-3.8493,-3.8184,-3.8199,-3.8926,-3.8943,-3.8959,-3.921,0,0,0,0,0,0,-3.768,-3.7706,-3.8026,-3.8035,-3.7772,-3.7879,-3.7894,-3.798,-3.8044,-3.8045,-3.7941,-3.7924,-3.8088,-3.8108,-3.8131,-3.8491,-3.8163,-3.8177,-3.8186,-3.8939,-3.8953,-3.8965,0,0,0,0,0,0,-3.7684,-3.7715,-3.8031,-3.7913,-3.7908,-3.7863,-3.7877,-3.8059,-3.8047,-3.7926,-3.7913,-3.7933,-3.8054,-3.811,-3.8126,-3.8414,-3.8146,-3.816,-3.817,-3.8176,-3.895,-3.8961,0,0,0,0,0,0,-3.7696,-3.7722,-3.791,-3.7907,-3.7902,-3.8001,-3.8023,-3.8217,-3.7945,-3.7925,-3.7919,-3.7907,-3.8058,-3.8074,-3.8124,-3.8405,-3.8411,-3.8146,-3.8156,-3.8163,-3.8167,0,0,0,0,0,0,0,-3.7706,-3.7543,-3.7972,-3.7902,-3.7897,-3.812,-3.8122,-3.8125,-3.7942,-3.7932,-3.7922,-3.7912,-3.8067,-3.8082,-3.8097,-3.8398,0,0,-3.8145,-3.8152,0,0,0,0,0,0,0,0,-3.7531,-3.754,-3.7972,-3.7974,-3.7976,-3.812,-3.8122,-3.8124,-3.7941,-3.7932,-3.7924,-3.7916,-3.8071,-3.8083,-3.8095,0,0,0,0,0,0,0,0,0,0,0,0,0,0,0,-3.7972,-3.7974,0,-3.8121,-3.8122,-3.8124,-3.7939,-3.7933,-3.7926,-3.7919,-3.8074,-3.8084,-3.8095,0,0,0,0,0,0,0,0,0,0,0,0,0,0,0,0,0,0,0,0,0,0,0,0,0,0,0,0,0,0,0,0,0,0,0,0,0,0,0,0,0,0,0,0,0,0,0,0,0,0,0,0,0,0,0,0,0,0,0,0,0,0,0,0,0,0,0,0,0]}],[{"header":{"parameterUnit":"kt","parameterCategory":2,"dx":1,"dy":1,"la1":30.253999710083008,"la2":30.299108505249023,"lo1":-89.0895004272461,"lo2":-89.04439544677734,"nx":28,"ny":28,"refTime":"2022-09-28T21:00:00:Z","depth":0,"parameterNumber":2,"parameterNumberName":"V-component_of_WINDS"},"data":[-12.4972,-12.5201,-12.521,-12.5473,-12.5525,-12.5704,-12.577,-12.5854,-12.5923,-12.6133,-12.6254,-12.6281,-12.6347,-12.6489,-12.6616,-12.6624,-12.6676,-12.6751,-12.6747,-12.6409,-12.6362,-12.6318,-12.6265,-12.6764,-12.6764,-12.7095,-12.7098,-12.71,-12.4719,-12.4775,-12.4918,-12.5062,-12.5182,-12.5115,-12.5221,-12.5325,-12.5486,-12.5572,-12.5692,-12.5875,-12.6019,-12.6061,-12.6198,-12.6299,-12.6272,-12.6335,-12.6326,-12.6337,-12.5977,-12.5921,-12.6355,-12.6355,-12.6354,-12.6354,-12.6354,-12.6354,-12.4262,-12.44,-12.4493,-12.4648,-12.4722,-12.4817,-12.4947,-12.498,-12.5116,-12.5266,-12.5246,-12.5425,-12.5509,-12.5677,-12.5733,-12.5869,-12.5799,-12.5868,-12.5885,-12.5902,-12.592,-12.5437,-12.5893,-12.5892,-12.589,-12.5889,-12.5889,0,-12.3929,-12.3927,-12.4066,-12.4207,-12.4319,-12.4428,-12.4528,-12.4608,-12.4601,-12.4713,-12.4876,-12.4969,-12.5152,-12.5301,-12.543,-12.5474,-12.5409,-12.5404,-12.5451,-12.5463,-12.5457,-12.5459,-12.4869,-12.539,-12.5386,-12.5383,-12.5381,-12.5379,-12.3465,-12.3627,-12.3727,-12.3823,-12.388,-12.4035,-12.4127,-12.4109,-12.4207,-12.4324,-12.4443,-12.4594,-12.4714,-12.4968,-12.4998,-12.5132,-12.5101,-12.5299,-12.5121,-12.5126,-12.5101,-12.509,-12.5104,-12.5334,-12.5339,-12.5344,-12.5348,0,-12.3203,-12.3216,-12.3468,-12.3551,-12.3576,-12.3744,-12.3811,-12.3946,-12.3962,-12.4148,-12.419,-12.4213,-12.437,-12.4369,-12.4547,-12.454,-12.4806,-12.4774,-12.4777,-12.4769,-12.4944,-12.4927,-12.5518,-12.5593,-12.5079,-12.5084,-12.5088,0,-12.2811,-12.3023,-12.3029,-12.3175,-12.3407,-12.3385,-12.3614,-12.365,-12.3725,-12.3872,-12.3801,-12.3939,-12.3916,-12.4053,-12.4043,-12.4261,-12.4295,-12.4301,-12.4296,-12.4307,-12.4306,-12.4354,-12.4329,-12.4281,-12.4278,-12.4276,-12.4273,0,-12.2397,-12.2649,-12.2886,-12.2945,-12.3053,-12.3163,-12.3213,-12.3296,-12.3386,-12.3502,-12.3558,-12.3694,-12.3768,-12.3871,-12.3859,-12.3737,-12.4126,-12.3956,-12.4132,-12.4132,-12.4216,-12.421,-12.4737,-12.4269,-12.4269,-12.4267,-12.4266,0,-12.2081,-12.2205,-12.2548,-12.2635,-12.2701,-12.2856,-12.299,-12.3123,-12.3216,-12.3221,-12.3311,-12.3263,-12.3456,-12.3287,-12.3551,-12.3396,-12.3471,-12.3496,-12.3508,-12.3523,-12.3333,-12.3627,-12.4132,-12.4183,-12.3539,-12.3533,-12.3527,0,-12.1601,-12.1951,-12.1935,-12.226,-12.242,-12.2331,-12.2502,-12.2587,-12.261,-12.2745,-12.2766,-12.2921,-12.2795,-12.2843,-12.2974,-12.3001,-12.3202,-12.2974,-12.3161,-12.3168,-12.3138,-12.3603,-12.3678,-12.4023,-12.345,-12.3458,-12.3464,0,-12.1231,-12.1365,-12.1425,-12.149,-12.1603,-12.1738,-12.1935,-12.2085,-12.2176,-12.228,-12.2441,-12.2659,-12.2572,-12.2652,-12.2626,-12.2763,-12.3065,-12.265,-12.2652,-12.2722,-12.3412,-12.3481,-12.3539,-12.3017,-12.3026,-12.3034,-12.3402,0,-12.0746,-12.0923,-12.1086,-12.1235,-12.1339,-12.1544,-12.1547,-12.1654,-12.1621,-12.1639,-12.1877,-12.1946,-12.2095,-12.2162,-12.213,-12.2445,-12.2391,-12.2296,-12.213,-12.2436,-12.2557,-12.2607,-12.1949,-12.1944,-12.194,-12.1937,0,0,-12.0281,-12.0537,-12.0514,-12.0707,-12.0793,-12.0698,-12.0915,-12.0987,-12.1135,-12.1194,-12.1102,-12.1419,-12.1479,-12.1767,-12.1863,-12.1925,-12.1979,-12.1873,-12.2291,-12.2331,-12.2367,-12.2497,-12.2549,-12.1929,-12.1928,-12.1926,-12.1925,0,-12.0105,-12.0177,-12.0395,-12.047,-12.058,-12.059,-12.0642,-12.0733,-12.0754,-12.099,-12.0904,-12.1047,-12.1303,-12.1376,-12.1447,-12.1839,-12.1764,-12.1884,-12.2095,-12.225,-12.2295,-12.2334,-12.2471,-12.2521,-12.1915,-12.1916,-12.1916,0,-11.9739,-11.9809,-11.9915,-12.0111,-12.0181,-12.0349,-12.0176,-12.0362,-12.0485,-12.0367,-12.0602,-12.064,-12.0738,-12.1013,-12.1135,-12.1054,-12.1567,-12.1407,-12.1433,-12.1445,-12.1595,-12.1649,-12.1697,-12.1061,-12.1058,-12.1055,0,0,-11.9585,-11.9751,-11.9819,-12.0073,-12.0124,-12.0142,-12.0232,-12.0208,-12.0302,-12.034,-12.0388,-12.0479,-12.0626,-12.0724,-12.0862,-12.1164,-12.118,-12.1301,-12.1342,-12.1375,-12.1405,-12.1564,-12.1617,-12.1044,-12.1044,-12.1043,0,0,-11.951,-11.9601,-11.9552,-11.9847,-11.9942,-12.0022,-12.0175,-12.0116,-12.0242,-12.0218,-12.0182,-12.0205,-12.0461,-12.0502,-12.0352,-12.0801,-12.0637,-12.0673,-12.0766,-12.0817,-12.0856,-12.084,-12.0181,0,0,0,0,0,-11.9332,-11.9589,-11.9544,-11.9594,-11.984,-12.0048,-12.0079,-12.0058,-11.9942,-12.0063,-12.0093,-12.0008,-12.0413,-12.028,-12.0328,-12.0494,-12.09,-12.0925,-12.0949,-12.114,-12.1193,-12.1238,0,0,0,0,0,0,-11.9352,-11.9414,-11.9537,-11.963,-11.9684,-12.0039,-11.9837,-11.9838,-11.9928,-11.9909,-12.0005,-12.0011,-11.9994,-12.0254,-12.0297,-12.0456,-12.0167,-12.091,-12.0931,-12.0951,-12.1158,-12.1202,-12.1239,0,0,0,0,0,-11.9367,-11.9417,-11.9817,-11.9625,-11.9673,-11.9707,-11.9827,-11.9827,-11.9895,-11.9943,-11.9946,-11.9872,-12.0,-12.0035,-12.0279,-12.0437,-12.0136,-12.0153,-12.0924,-12.0941,-12.0956,-12.118,0,0,0,0,0,0,-11.9379,-11.9416,-11.9826,-11.984,-11.9528,-11.9687,-11.9711,-11.9817,-11.9922,-11.9929,-11.9806,-11.979,-12.0007,-12.0032,-12.006,-12.0432,-12.0111,-12.0128,-12.0139,-12.0937,-12.095,-12.0962,0,0,0,0,0,0,-11.9389,-11.9429,-11.9833,-11.9711,-11.971,-11.9668,-11.969,-11.9894,-11.9925,-11.978,-11.9769,-11.9798,-11.9963,-12.0032,-12.0053,-12.0373,-12.0093,-12.0108,-12.012,-12.0127,-12.0948,-12.0958,0,0,0,0,0,0,-11.9405,-11.9439,-11.9707,-11.9707,-11.9705,-11.9855,-11.9847,-12.0099,-11.9825,-11.9776,-11.9799,-11.9787,-11.9966,-11.9986,-12.0049,-12.0361,-12.037,-12.0093,-12.0104,-12.0112,-12.0117,0,0,0,0,0,0,0,-11.9418,-11.9199,-11.9747,-11.9703,-11.9702,-11.9965,-11.9969,-11.9972,-11.9822,-11.9812,-11.9802,-11.9792,-12.0002,-12.0019,-12.0037,-12.0351,0,0,-12.0091,-12.0099,0,0,0,0,0,0,0,0,-11.9184,-11.9195,-11.9747,-11.975,-11.9753,-11.9966,-11.9968,-11.9971,-11.982,-11.9812,-11.9804,-11.9796,-12.0006,-12.002,-12.0035,0,0,0,0,0,0,0,0,0,0,0,0,0,0,0,-11.9747,-11.975,0,-11.9966,-11.9968,-11.9971,-11.9819,-11.9812,-11.9806,-11.9799,-12.001,-12.0022,-12.0034,0,0,0,0,0,0,0,0,0,0,0,0,0,0,0,0,0,0,0,0,0,0,0,0,0,0,0,0,0,0,0,0,0,0,0,0,0,0,0,0,0,0,0,0,0,0,0,0,0,0,0,0,0,0,0,0,0,0,0,0,0,0,0,0,0,0,0,0,0]}]]]